Date String (YYYY-MM-DD hh:mm:ss) UTC,Instrument flags,absolute air pressure of the measurement (hPa),sample flow rate (lpm),inlet stack bypass flow (lpm),air temperature of the measurement (°C),ambient temperature measured by the external sensor (°C),aerosol sample conditioner tube jacket temperature (°C),OPC LED temperature (°C),internal box temperature (°C),relative humidity of the measurement (%),span deviation,mass concentration of particles derived from Lorenz-Mie calculation of OPC scattering (μg/m³),mass concentration of particles derived from Lorenz-Mie calculation of OPC scattering (μg/m³),mass concentration of particles derived from Lorenz-Mie calculation of OPC scattering (μg/m³)
DateTimeUTC,F1_M11,P_M11,Q1_M11,Q2_M11,T1_M11,T2_M11,T3_M11,T4_M11,T5_M11,U1_M11,ZSPAN_M11,X0_M11,X2_M11,X1_M11
2024-03-21 18:00:00,SystemResetWarning,0825.9,5.00,000.00,023.0,022.5,000.0,031.2,024.8,14.6,0000.0,0008.24,0003.18,0002.47
2024-03-21 18:01:00,SystemResetWarning,0825.9,5.00,000.00,023.0,022.5,000.0,031.2,024.8,14.7,0000.0,0008.21,0003.16,0002.48
2024-03-21 18:02:00,SystemResetWarning,0825.8,5.00,000.00,023.0,022.5,000.0,031.3,024.8,14.3,0000.0,0009.20,0003.17,0002.48
2024-03-21 18:03:00,SystemResetWarning,0825.8,5.00,000.00,023.0,022.6,000.0,031.3,024.8,14.0,0000.0,0009.36,0003.17,0002.47
2024-03-21 18:04:00,SystemResetWarning,0825.8,5.00,000.00,023.0,022.6,000.0,031.3,024.8,14.2,0000.0,0009.39,0003.18,0002.48
2024-03-21 18:05:00,SystemResetWarning,0825.8,5.00,000.00,023.1,022.6,000.0,031.3,024.9,13.7,0000.0,0008.61,0003.20,0002.48
2024-03-21 18:06:00,SystemResetWarning,0825.8,5.00,000.00,023.1,022.6,000.0,031.3,024.9,13.8,0000.0,0008.49,0003.18,0002.48
2024-03-21 18:07:00,SystemResetWarning,0825.8,5.00,000.00,023.1,022.6,000.0,031.3,024.9,13.8,0000.0,0008.56,0003.20,0002.50
2024-03-21 18:08:00,SystemResetWarning,0825.8,5.00,000.00,023.1,022.6,000.0,031.3,024.9,13.7,0000.0,0008.22,0003.18,0002.50
2024-03-21 18:09:00,SystemResetWarning,0825.8,5.00,000.00,023.1,022.7,000.0,031.4,024.9,13.8,0000.0,0008.27,0003.19,0002.50
2024-03-21 18:10:00,SystemResetWarning,0825.8,5.00,000.00,023.1,022.7,000.0,031.4,024.9,13.8,0000.0,0009.80,0003.19,0002.54
2024-03-21 18:11:00,SystemResetWarning,0825.7,5.00,000.00,023.2,022.7,000.0,031.4,025.0,14.0,0000.0,0009.95,0003.22,0002.55
2024-03-21 18:12:00,SystemResetWarning,0825.7,4.99,000.00,023.2,022.7,000.0,031.4,025.0,13.8,0000.0,0009.91,0003.25,0002.59
2024-03-21 18:13:00,SystemResetWarning,0825.6,4.99,000.00,023.2,022.7,000.0,031.4,025.0,13.9,0000.0,0008.98,0003.28,0002.63
2024-03-21 18:14:00,SystemResetWarning,0825.7,5.01,000.00,023.2,022.8,000.0,031.4,025.0,13.5,0000.0,0009.16,0003.28,0002.64
2024-03-21 18:15:00,SystemResetWarning,0825.6,5.01,000.00,023.2,022.8,000.0,031.5,025.0,13.7,0000.0,0009.59,0003.28,0002.62
2024-03-21 18:16:00,SystemResetWarning,0825.6,5.00,000.00,023.2,022.8,000.0,031.5,025.0,13.8,0000.0,0009.82,0003.28,0002.59
2024-03-21 18:17:00,SystemResetWarning,0825.6,5.00,000.00,023.3,022.8,000.0,031.5,025.0,13.4,0000.0,0010.78,0003.28,0002.59
2024-03-21 18:18:00,SystemResetWarning,0825.6,5.00,000.00,023.3,022.8,000.0,031.5,025.1,13.2,0000.0,0010.68,0003.25,0002.55
2024-03-21 18:19:00,SystemResetWarning,0825.6,4.99,000.00,023.3,022.9,000.0,031.5,025.1,13.4,0000.0,0010.55,0003.23,0002.52
2024-03-21 18:20:00,SystemResetWarning,0825.6,5.00,000.00,023.3,022.9,000.0,031.5,025.1,13.5,0000.0,0010.32,0003.20,0002.49
2024-03-21 18:21:00,SystemResetWarning,0825.6,5.00,000.00,023.3,022.9,000.0,031.6,025.1,13.2,0000.0,0008.58,0003.19,0002.45
2024-03-21 18:22:00,SystemResetWarning,0825.6,5.01,000.00,023.4,022.9,000.0,031.6,025.1,13.2,0000.0,0008.09,0003.15,0002.44
2024-03-21 18:23:00,SystemResetWarning,0825.6,5.01,000.00,023.4,022.9,000.0,031.6,025.1,13.6,0000.0,0008.28,0003.11,0002.39
2024-03-21 18:24:00,SystemResetWarning,0825.6,5.01,000.00,023.4,023.0,000.0,031.6,025.2,13.7,0000.0,0008.18,0003.04,0002.36
2024-03-21 18:25:00,SystemResetWarning,0825.6,5.00,000.00,023.4,023.0,000.0,031.6,025.2,13.7,0000.0,0008.20,0003.06,0002.35
2024-03-21 18:26:00,SystemResetWarning,0825.6,5.00,000.00,023.4,023.0,000.0,031.7,025.2,13.4,0000.0,0007.67,0003.09,0002.33
2024-03-21 18:27:00,SystemResetWarning,0825.6,5.00,000.00,023.5,023.0,000.0,031.7,025.2,13.3,0000.0,0007.73,0003.07,0002.33
2024-03-21 18:28:00,SystemResetWarning,0825.6,4.99,000.00,023.5,023.0,000.0,031.7,025.3,13.0,0000.0,0006.77,0003.06,0002.32
2024-03-21 18:29:00,SystemResetWarning,0825.5,5.00,000.00,023.5,023.1,000.0,031.7,025.3,13.2,0000.0,0007.53,0003.12,0002.32
2024-03-21 18:30:00,SystemResetWarning,0825.5,5.01,000.00,023.5,023.1,000.0,031.7,025.3,13.6,0000.0,0007.64,0003.14,0002.33
2024-03-21 18:31:00,SystemResetWarning,0825.5,5.01,000.00,023.5,023.1,000.0,031.8,025.4,13.2,0000.0,0007.83,0003.13,0002.33
2024-03-21 18:32:00,SystemResetWarning,0825.4,4.99,000.00,023.6,023.1,000.0,031.8,025.4,13.5,0000.0,0007.67,0003.11,0002.33
2024-03-21 18:33:00,SystemResetWarning,0825.4,4.99,000.00,023.6,023.1,000.0,031.8,025.4,13.4,0000.0,0007.79,0003.11,0002.31
2024-03-21 18:34:00,SystemResetWarning,0825.4,5.00,000.00,023.6,023.1,000.0,031.8,025.4,13.5,0000.0,0007.71,0003.12,0002.29
2024-03-21 18:35:00,SystemResetWarning,0825.4,5.01,000.00,023.6,023.2,000.0,031.8,025.4,13.1,0000.0,0007.60,0003.10,0002.26
2024-03-21 18:36:00,SystemResetWarning,0825.4,5.01,000.00,023.6,023.2,000.0,031.8,025.5,13.1,0000.0,0007.49,0003.05,0002.21
2024-03-21 18:37:00,SystemResetWarning,0825.4,5.00,000.00,023.7,023.2,000.0,031.9,025.5,13.0,0000.0,0007.33,0002.96,0002.18
2024-03-21 18:38:00,SystemResetWarning,0825.4,5.00,000.00,023.7,023.2,000.0,031.9,025.5,13.1,0000.0,0007.66,0002.91,0002.15
2024-03-21 18:39:00,SystemResetWarning,0825.4,5.00,000.00,023.7,023.2,000.0,031.9,025.5,12.7,0000.0,0007.87,0002.86,0002.12
2024-03-21 18:40:00,SystemResetWarning,0825.4,4.99,000.00,023.7,023.3,000.0,031.9,025.5,12.8,0000.0,0008.02,0002.82,0002.10
2024-03-21 18:41:00,SystemResetWarning,0825.4,5.00,000.00,023.7,023.3,000.0,031.9,025.5,13.0,0000.0,0008.28,0002.79,0002.07
2024-03-21 18:42:00,SystemResetWarning,0825.4,5.01,000.00,023.8,023.3,000.0,032.0,025.5,12.5,0000.0,0008.01,0002.75,0002.03
2024-03-21 18:43:00,SystemResetWarning,0825.3,5.00,000.00,023.8,023.3,000.0,032.0,025.5,12.2,0000.0,0008.15,0002.78,0002.00
2024-03-21 18:44:00,SystemResetWarning,0825.3,5.00,000.00,023.8,023.3,000.0,032.0,025.6,12.1,0000.0,0008.08,0002.75,0001.97
2024-03-21 18:45:00,SystemResetWarning,0825.3,4.99,000.00,023.8,023.3,000.0,032.0,025.6,13.0,0000.0,0007.99,0002.67,0001.93
2024-03-21 18:46:00,SystemResetWarning,0825.3,5.00,000.00,023.8,023.4,000.0,032.0,025.6,12.2,0000.0,0008.02,0002.64,0001.89
2024-03-21 18:47:00,SystemResetWarning,0825.2,5.00,000.00,023.8,023.4,000.0,032.1,025.6,12.3,0000.0,0008.02,0002.62,0001.87
2024-03-21 18:48:00,SystemResetWarning,0825.3,4.99,000.00,023.9,023.4,000.0,032.1,025.6,12.1,0000.0,0007.93,0002.56,0001.84
2024-03-21 18:49:00,SystemResetWarning,0825.3,5.00,000.00,023.9,023.4,000.0,032.1,025.7,11.7,0000.0,0007.53,0002.48,0001.81
2024-03-21 18:50:00,SystemResetWarning,0825.3,5.01,000.00,023.9,023.4,000.0,032.1,025.7,12.0,0000.0,0006.75,0002.42,0001.77
2024-03-21 18:51:00,SystemResetWarning,0825.3,5.01,000.00,023.9,023.5,000.0,032.1,025.7,11.9,0000.0,0005.25,0002.30,0001.74
2024-03-21 18:52:00,SystemResetWarning,0825.2,5.01,000.00,023.9,023.5,000.0,032.1,025.7,11.9,0000.0,0004.46,0002.22,0001.71
2024-03-21 18:53:00,SystemResetWarning,0825.3,5.00,000.00,024.0,023.5,000.0,032.2,025.7,12.7,0000.0,0004.67,0002.18,0001.69
2024-03-21 18:54:00,SystemResetWarning,0825.2,4.99,000.00,024.0,023.5,000.0,032.2,025.7,12.8,0000.0,0004.37,0002.11,0001.66
2024-03-21 18:55:00,SystemResetWarning,0825.3,4.99,000.00,024.0,023.5,000.0,032.2,025.8,12.5,0000.0,0004.45,0002.12,0001.64
2024-03-21 18:56:00,SystemResetWarning,0825.2,5.01,000.00,024.0,023.5,000.0,032.2,025.8,12.5,0000.0,0004.30,0002.10,0001.63
2024-03-21 18:57:00,SystemResetWarning,0825.2,5.00,000.00,024.0,023.6,000.0,032.2,025.9,12.7,0000.0,0004.12,0002.07,0001.62
2024-03-21 18:58:00,SystemResetWarning,0825.2,5.00,000.00,024.1,023.6,000.0,032.3,025.9,12.9,0000.0,0004.03,0002.03,0001.59
2024-03-21 18:59:00,SystemResetWarning,0825.3,5.00,000.00,024.1,023.6,000.0,032.3,025.9,12.2,0000.0,0004.53,0002.04,0001.58
